Regional Weather Roundup
Issued by NWS

Home | Current Version | Previous Version | Graphics & Text | Print | Product List | Glossary Off
Versions: 1 2 3 4 5 6 7 8 9 10 11 12 13 14 15 16 17 18 19 20 21 22 23 24 25 26 27 28 29 30 31 32 33 34 35 36 37 38 39 40 41 42 43 44 45 46 47 48 49 50

000
ASUS43 KLOT 010200
RWRIL

ILLINOIS REGIONAL WEATHER ROUNDUP
NATIONAL WEATHER SERVICE CHICAGO/ROMEOVILLE IL
900 PM CDT FRI JUL 31 2015

NOTE: "FAIR" INDICATES FEW OR NO CLOUDS BELOW 12,000 FEET WITH NO
SIGNIFICANT WEATHER AND/OR OBSTRUCTIONS TO VISIBILITY.

* THESE STATIONS ARE NOT UNDER NWS QUALITY CONTROL. THEY ALSO MAY NOT
  REPORT WEATHER SUCH AS PRECIPITATION OR FOG.

ILZ001-002-007-009-015-016-024-010300-
NORTHWEST ILLINOIS

CITY           SKY/WX    TMP DP  RH WIND       PRES   REMARKS
MOLINE         CLEAR     76  56  49 NW8       30.01S
STERLING*      CLEAR     72  55  56 W9        29.97R
$$

ILZ003-004-008-010-011-017-018-010300-
NORTH CENTRAL ILLINOIS

CITY           SKY/WX    TMP DP  RH WIND       PRES   REMARKS
ROCKFORD       PTCLDY    72  50  45 NW6       29.99R
$$

ILZ005-006-012>014-019>023-010300-
NORTHEAST ILLINOIS

CITY           SKY/WX    TMP DP  RH WIND       PRES   REMARKS
CHICAGO-OHARE  PTCLDY    76  49  38 NW9       29.96R
CHICAGO-MIDWAY PTCLDY    80  48  32 NW8       29.95R
AURORA         CLEAR     65  57  75 W7        29.98R
WAUKEGAN       CLEAR     67  54  63 CALM      29.95R
DUPAGE AIRPORT CLEAR     73  52  47 NW6       29.97R
WHEELING       CLEAR     75  48  38 NW6       29.97R
NORTHERLY ISL    N/A     79  46  31 W9          N/A
$$

LMZ740>746-010300-
SOUTHERN LAKE MICHIGAN

STATION/POSITION SKY/WX   TEMP    WIND        PRES    VSBY  WAVE
                          AIR SEA DIR/SP/G                  HT/PER
                          (F)     (DEG/KT/KT) (MB)    (MI)  (FT/S)
HARRISON CRIB              79     310/ 18/ 21   N/A
BURNHAM HARBOR             80     300/ 12/ 15   N/A
CALUMET HARBOR             81     300/  7/ 13   N/A
BURNS HARBOR               76     350/  7/  8 1014.2R
MICHIGAN CITY              75     330/ 11/ 13   N/A
MICHIGAN CITY 6N           74 74   10/  6/  8   N/A           3/ 4
ST. JOSEPH                 74 74  320/  4/  4   N/A           1/ 3
$$

ILZ025>027-034>036-040-047-049-050-058-095>099-010300-
WEST-CENTRAL ILLINOIS

CITY           SKY/WX    TMP DP  RH WIND       PRES   REMARKS
QUINCY         CLOUDY    78  70  76 CALM      30.02S HX  80
$$

ILZ028>032-037-038-041>044-048-051>054-059>061-010300-
CENTRAL ILLINOIS

CITY           SKY/WX    TMP DP  RH WIND       PRES   REMARKS
DECATUR        CLEAR     80  57  45 NW7       30.01R HX  80
PEORIA         CLEAR     78  63  59 NW3       30.01R HX  80
SPRINGFIELD    MOCLDY    76  71  85 N6        30.01S
TAYLORVILLE    NOT AVBL
$$

ILZ033-039-045-046-055>057-062-063-010300-
EAST-CENTRAL ILLINOIS

CITY           SKY/WX    TMP DP  RH WIND       PRES   REMARKS
CHAMPAIGN      CLEAR     71  65  81 W6        30.00S
MATTOON        CLEAR     75  65  70 CALM      30.00R
$$

ILZ079-100>102-010300-
SOUTHWEST ILLINOIS

CITY           SKY/WX    TMP DP  RH WIND       PRES   REMARKS
BELLEVILLE     CLEAR     77  70  79 N2        30.00R
CAHOKIA*       CLEAR     79  65  62 CALM      30.01R HX  81
$$

ILZ064>066-069>071-074>076-080>082-084>086-088>090-092>094-010300-
SOUTH-CENTRAL ILLINOIS

CITY           SKY/WX    TMP DP  RH WIND       PRES   REMARKS
CARBONDALE     CLEAR     77  74  90 CALM      30.02R
MT. VERNON     CLEAR     73  64  73 CALM      30.02R
$$

ILZ067-068-072-073-078-083-087-091-010300-
SOUTHEAST ILLINOIS

CITY           SKY/WX    TMP DP  RH WIND       PRES   REMARKS
LAWRENCEVILLE  CLEAR     78  69  73 CALM      30.00R HX  80
$$

ABBREVIATIONS USED IN REMARKS
   TC - TEMPERATURE IN CELSIUS
  WCI - WIND CHILL INDEX
   HX - HEAT INDEX
  VSB - VISIBILITY
$$



USA.gov is the U.S. government's official web portal to all federal, state and local government web resources and services.